Time,TemperatureF,DewpointF,PressureIn,WindDirection,WindDirectionDegrees,WindSpeedMPH,WindSpeedGustMPH,Humidity,HourlyPrecipIn,Conditions,Clouds,dailyrainin,SoftwareType,DateUTC
2013-04-11 00:02:00,63.7,58.0,29.81,SSW,192,0.0,0.0,82,0.00,,,0.00,weatherlink.com 1.10,2013-04-11 05:02:00,
2013-04-11 00:17:00,63.7,58.0,29.81,SSW,192,0.0,0.0,82,0.00,,,0.00,weatherlink.com 1.10,2013-04-11 05:17:00,
2013-04-11 00:32:00,63.7,59.0,29.80,SSW,192,0.0,0.0,83,0.00,,,0.00,weatherlink.com 1.10,2013-04-11 05:32:00,
2013-04-11 00:47:00,64.2,59.0,29.80,WSW,254,1.0,3.0,82,0.00,,,0.00,weatherlink.com 1.10,2013-04-11 05:47:00,
2013-04-11 01:02:00,65.1,59.0,29.81,SSW,211,0.0,1.0,80,0.00,,,0.00,weatherlink.com 1.10,2013-04-11 06:02:00,
2013-04-11 01:17:00,65.4,59.0,29.81,SSW,211,0.0,1.0,80,0.00,,,0.00,weatherlink.com 1.10,2013-04-11 06:17:00,
2013-04-11 01:32:00,65.8,59.0,29.81,SSW,213,0.0,3.0,79,0.00,,,0.00,weatherlink.com 1.10,2013-04-11 06:32:00,
2013-04-11 01:47:00,66.0,59.0,29.80,SSW,209,0.0,1.0,79,0.00,,,0.00,weatherlink.com 1.10,2013-04-11 06:47:00,
2013-04-11 02:03:00,66.4,59.0,29.79,SW,217,0.0,4.0,78,0.00,,,0.00,weatherlink.com 1.10,2013-04-11 07:03:00,
2013-04-11 02:18:00,66.2,59.0,29.78,SSE,167,0.0,2.0,78,0.00,,,0.00,weatherlink.com 1.10,2013-04-11 07:18:00,
2013-04-11 02:33:00,65.8,59.0,29.79,SSW,203,0.0,1.0,79,0.00,,,0.00,weatherlink.com 1.10,2013-04-11 07:33:00,
2013-04-11 02:48:00,65.7,59.0,29.79,SSW,201,0.0,3.0,79,0.00,,,0.00,weatherlink.com 1.10,2013-04-11 07:48:00,
2013-04-11 03:03:00,65.4,59.0,29.78,SSW,209,0.0,2.0,79,0.00,,,0.00,weatherlink.com 1.10,2013-04-11 08:03:00,
2013-04-11 03:18:00,65.1,58.0,29.78,SSW,201,0.0,0.0,79,0.00,,,0.00,weatherlink.com 1.10,2013-04-11 08:18:00,
2013-04-11 03:33:00,64.8,59.0,29.79,South,182,0.0,1.0,80,0.00,,,0.00,weatherlink.com 1.10,2013-04-11 08:33:00,
2013-04-11 03:48:00,64.5,59.0,29.78,SSW,206,0.0,3.0,81,0.00,,,0.00,weatherlink.com 1.10,2013-04-11 08:48:00,
2013-04-11 04:03:00,64.2,59.0,29.78,South,184,0.0,2.0,82,0.00,,,0.00,weatherlink.com 1.10,2013-04-11 09:03:00,
2013-04-11 04:18:00,63.5,58.0,29.79,South,184,0.0,1.0,82,0.00,,,0.00,weatherlink.com 1.10,2013-04-11 09:18:00,
2013-04-11 04:33:00,62.6,58.0,29.79,South,184,0.0,0.0,84,0.00,,,0.00,weatherlink.com 1.10,2013-04-11 09:33:00,
2013-04-11 04:48:00,61.8,58.0,29.78,South,184,0.0,0.0,86,0.00,,,0.00,weatherlink.com 1.10,2013-04-11 09:48:00,
2013-04-11 05:03:00,61.3,57.0,29.78,South,184,0.0,0.0,87,0.00,,,0.00,weatherlink.com 1.10,2013-04-11 10:03:00,
2013-04-11 05:18:00,60.9,57.0,29.78,South,178,0.0,0.0,88,0.00,,,0.00,weatherlink.com 1.10,2013-04-11 10:18:00,
2013-04-11 05:33:00,60.8,57.0,29.78,South,178,0.0,0.0,88,0.00,,,0.00,weatherlink.com 1.10,2013-04-11 10:33:00,
2013-04-11 05:48:00,60.5,57.0,29.78,South,178,0.0,0.0,88,0.00,,,0.00,weatherlink.com 1.10,2013-04-11 10:48:00,
2013-04-11 06:03:00,60.1,57.0,29.79,South,180,0.0,1.0,89,0.00,,,0.00,weatherlink.com 1.10,2013-04-11 11:03:00,
2013-04-11 06:18:00,59.8,57.0,29.79,South,180,0.0,0.0,89,0.00,,,0.00,weatherlink.com 1.10,2013-04-11 11:18:00,
2013-04-11 06:33:00,59.6,57.0,29.79,South,180,0.0,0.0,90,0.00,,,0.00,weatherlink.com 1.10,2013-04-11 11:33:00,
2013-04-11 06:48:00,59.7,57.0,29.79,South,180,0.0,0.0,91,0.00,,,0.00,weatherlink.com 1.10,2013-04-11 11:48:00,
2013-04-11 07:03:00,60.1,58.0,29.79,South,180,0.0,1.0,91,0.00,,,0.00,weatherlink.com 1.10,2013-04-11 12:03:00,
2013-04-11 07:18:00,60.4,58.0,29.78,SSE,166,0.0,2.0,90,0.00,,,0.00,weatherlink.com 1.10,2013-04-11 12:18:00,
2013-04-11 07:33:00,60.8,58.0,29.78,South,175,0.0,3.0,90,0.00,,,0.00,weatherlink.com 1.10,2013-04-11 12:33:00,
2013-04-11 07:48:00,61.7,59.0,29.78,SE,143,0.0,1.0,89,0.00,,,0.00,weatherlink.com 1.10,2013-04-11 12:48:00,
2013-04-11 08:03:00,62.8,59.0,29.78,SSE,165,0.0,3.0,87,0.00,,,0.00,weatherlink.com 1.10,2013-04-11 13:03:00,
2013-04-11 08:18:00,64.3,59.0,29.78,SSW,211,0.0,3.0,84,0.00,,,0.00,weatherlink.com 1.10,2013-04-11 13:18:00,
2013-04-11 08:33:00,65.9,60.0,29.78,SE,134,0.0,3.0,81,0.00,,,0.00,weatherlink.com 1.10,2013-04-11 13:33:00,
2013-04-11 08:48:00,67.3,60.0,29.78,SSW,211,0.0,4.0,78,0.00,,,0.00,weatherlink.com 1.10,2013-04-11 13:48:00,
2013-04-11 09:03:00,68.2,61.0,29.78,SW,232,2.0,9.0,78,0.00,,,0.00,weatherlink.com 1.10,2013-04-11 14:03:00,
2013-04-11 09:18:00,69.0,62.0,29.78,SSE,157,0.0,7.0,77,0.00,,,0.00,weatherlink.com 1.10,2013-04-11 14:18:00,
2013-04-11 09:33:00,69.2,62.0,29.78,West,276,0.0,3.0,78,0.00,,,0.00,weatherlink.com 1.10,2013-04-11 14:33:00,
2013-04-11 09:48:00,70.3,62.0,29.77,SE,132,0.0,4.0,76,0.00,,,0.00,weatherlink.com 1.10,2013-04-11 14:48:00,
2013-04-11 10:03:00,71.2,63.0,29.77,West,265,0.0,4.0,75,0.00,,,0.00,weatherlink.com 1.10,2013-04-11 15:03:00,
2013-04-11 10:18:00,71.8,63.0,29.77,SSW,197,1.0,7.0,74,0.00,,,0.00,weatherlink.com 1.10,2013-04-11 15:18:00,
2013-04-11 10:33:00,72.1,63.0,29.77,SW,217,2.0,5.0,73,0.00,,,0.00,weatherlink.com 1.10,2013-04-11 15:33:00,
2013-04-11 10:48:00,72.1,63.0,29.77,WSW,247,0.0,3.0,73,0.00,,,0.00,weatherlink.com 1.10,2013-04-11 15:48:00,
2013-04-11 11:03:00,72.2,64.0,29.76,SW,221,0.0,4.0,74,0.00,,,0.00,weatherlink.com 1.10,2013-04-11 16:03:00,
2013-04-11 11:18:00,72.2,64.0,29.75,SSW,199,0.0,3.0,75,0.00,,,0.00,weatherlink.com 1.10,2013-04-11 16:18:00,
2013-04-11 11:33:00,72.7,64.0,29.74,South,188,0.0,5.0,74,0.00,,,0.00,weatherlink.com 1.10,2013-04-11 16:33:00,
2013-04-11 11:49:00,74.9,65.0,29.72,SSW,205,0.0,5.0,72,0.00,,,0.00,weatherlink.com 1.10,2013-04-11 16:49:00,
2013-04-11 12:04:00,75.8,65.0,29.71,West,272,1.0,11.0,69,0.00,,,0.00,weatherlink.com 1.10,2013-04-11 17:04:00,
2013-04-11 12:19:00,75.6,66.0,29.69,SW,223,0.0,9.0,71,0.00,,,0.00,weatherlink.com 1.10,2013-04-11 17:19:00,
2013-04-11 12:34:00,76.9,66.0,29.68,South,174,3.0,9.0,68,0.00,,,0.00,weatherlink.com 1.10,2013-04-11 17:34:00,
2013-04-11 12:49:00,77.4,66.0,29.67,South,184,3.0,6.0,67,0.00,,,0.00,weatherlink.com 1.10,2013-04-11 17:49:00,
2013-04-11 13:04:00,77.3,66.0,29.66,SW,225,0.0,9.0,68,0.00,,,0.00,weatherlink.com 1.10,2013-04-11 18:04:00,
2013-04-11 13:19:00,77.9,66.0,29.64,SW,227,2.0,8.0,67,0.00,,,0.00,weatherlink.com 1.10,2013-04-11 18:19:00,
2013-04-11 13:34:00,76.5,66.0,29.64,ESE,117,0.0,7.0,69,0.00,,,0.00,weatherlink.com 1.10,2013-04-11 18:34:00,
2013-04-11 13:49:00,76.2,66.0,29.62,South,187,0.0,8.0,70,0.00,,,0.00,weatherlink.com 1.10,2013-04-11 18:49:00,
2013-04-11 14:04:00,75.8,66.0,29.61,NNE,26,4.0,5.0,72,0.00,,,0.00,weatherlink.com 1.10,2013-04-11 19:04:00,
2013-04-11 14:19:00,75.1,66.0,29.60,NNW,327,0.0,4.0,73,0.00,,,0.00,weatherlink.com 1.10,2013-04-11 19:19:00,
2013-04-11 14:34:00,74.1,66.0,29.60,SSW,205,0.0,4.0,77,0.00,,,0.00,weatherlink.com 1.10,2013-04-11 19:34:00,
2013-04-11 14:49:00,72.8,67.0,29.59,South,170,0.0,5.0,82,0.00,,,0.00,weatherlink.com 1.10,2013-04-11 19:49:00,
2013-04-11 15:04:00,72.4,67.0,29.58,South,178,0.0,4.0,84,0.00,,,0.00,weatherlink.com 1.10,2013-04-11 20:04:00,
2013-04-11 15:19:00,72.6,67.0,29.56,ESE,108,1.0,3.0,83,0.00,,,0.00,weatherlink.com 1.10,2013-04-11 20:19:00,
2013-04-11 15:34:00,72.9,68.0,29.55,South,185,0.0,5.0,84,0.01,,,0.01,weatherlink.com 1.10,2013-04-11 20:34:00,
2013-04-11 15:49:00,71.3,67.0,29.54,NNW,331,0.0,0.0,87,0.06,,,0.06,weatherlink.com 1.10,2013-04-11 20:49:00,
2013-04-11 16:04:00,70.0,67.0,29.55,ESE,111,0.0,3.0,89,0.12,,,0.12,weatherlink.com 1.10,2013-04-11 21:04:00,
2013-04-11 16:19:00,69.0,66.0,29.58,SSW,205,1.0,7.0,91,0.35,,,0.35,weatherlink.com 1.10,2013-04-11 21:19:00,
2013-04-11 16:34:00,67.7,65.0,29.55,WNW,283,2.0,2.0,91,0.40,,,0.41,weatherlink.com 1.10,2013-04-11 21:34:00,
2013-04-11 16:49:00,67.5,66.0,29.55,WSW,247,0.0,2.0,93,0.35,,,0.41,weatherlink.com 1.10,2013-04-11 21:49:00,
2013-04-11 17:04:00,67.5,66.0,29.56,SSW,209,0.0,1.0,93,0.29,,,0.41,weatherlink.com 1.10,2013-04-11 22:04:00,
2013-04-11 17:19:00,67.1,65.0,29.57,South,179,0.0,0.0,93,0.05,,,0.41,weatherlink.com 1.10,2013-04-11 22:19:00,
2013-04-11 17:34:00,66.8,65.0,29.55,South,179,0.0,0.0,94,0.00,,,0.41,weatherlink.com 1.10,2013-04-11 22:34:00,
2013-04-11 17:49:00,66.6,65.0,29.54,SW,232,0.0,0.0,94,0.01,,,0.42,weatherlink.com 1.10,2013-04-11 22:49:00,
2013-04-11 18:04:00,65.3,63.0,29.61,West,259,2.0,8.0,92,0.36,,,0.77,weatherlink.com 1.10,2013-04-11 23:04:00,
2013-04-11 18:19:00,63.8,62.0,29.60,WNW,296,1.0,4.0,93,0.55,,,0.96,weatherlink.com 1.10,2013-04-11 23:19:00,
2013-04-11 18:34:00,63.1,61.0,29.59,North,5,0.0,4.0,94,0.61,,,1.02,weatherlink.com 1.10,2013-04-11 23:34:00,
2013-04-11 18:49:00,62.8,61.0,29.60,SSE,148,0.0,0.0,94,0.67,,,1.09,weatherlink.com 1.10,2013-04-11 23:49:00,
2013-04-11 19:04:00,62.7,61.0,29.60,SSE,148,0.0,1.0,95,0.36,,,1.15,weatherlink.com 1.10,2013-04-12 00:04:00,
2013-04-11 19:19:00,62.5,61.0,29.58,SSE,149,0.0,1.0,95,0.28,,,1.24,weatherlink.com 1.10,2013-04-12 00:19:00,
2013-04-11 19:34:00,62.3,61.0,29.58,SSE,148,0.0,0.0,95,0.31,,,1.33,weatherlink.com 1.10,2013-04-12 00:34:00,
2013-04-11 19:49:00,62.1,61.0,29.58,SSW,195,0.0,3.0,95,0.33,,,1.42,weatherlink.com 1.10,2013-04-12 00:49:00,
2013-04-11 20:04:00,62.2,61.0,29.59,ESE,106,0.0,3.0,95,0.33,,,1.48,weatherlink.com 1.10,2013-04-12 01:04:00,
2013-04-11 20:19:00,62.3,61.0,29.60,South,171,0.0,2.0,96,0.33,,,1.57,weatherlink.com 1.10,2013-04-12 01:19:00,
2013-04-11 20:34:00,62.3,61.0,29.59,South,176,0.0,1.0,96,0.31,,,1.64,weatherlink.com 1.10,2013-04-12 01:34:00,
2013-04-11 20:49:00,62.3,61.0,29.59,SE,141,0.0,2.0,96,0.26,,,1.68,weatherlink.com 1.10,2013-04-12 01:49:00,
2013-04-11 21:04:00,62.4,61.0,29.54,NE,52,0.0,4.0,96,0.24,,,1.72,weatherlink.com 1.10,2013-04-12 02:04:00,
2013-04-11 21:19:00,62.5,61.0,29.49,East,86,0.0,4.0,96,0.18,,,1.75,weatherlink.com 1.10,2013-04-12 02:19:00,
2013-04-11 21:34:00,62.5,61.0,29.52,SSW,196,5.0,6.0,96,0.11,,,1.75,weatherlink.com 1.10,2013-04-12 02:34:00,
2013-04-11 21:49:00,62.7,62.0,29.53,SSW,194,0.0,4.0,96,0.07,,,1.75,weatherlink.com 1.10,2013-04-12 02:49:00,
2013-04-11 22:04:00,62.4,61.0,29.55,SSW,194,0.0,0.0,96,0.03,,,1.75,weatherlink.com 1.10,2013-04-12 03:04:00,
2013-04-11 22:19:00,62.3,61.0,29.56,SSW,194,0.0,1.0,96,0.00,,,1.75,weatherlink.com 1.10,2013-04-12 03:19:00,
2013-04-11 22:34:00,62.3,61.0,29.57,SSW,194,0.0,0.0,96,0.00,,,1.75,weatherlink.com 1.10,2013-04-12 03:34:00,
2013-04-11 22:49:00,62.3,61.0,29.57,SSW,194,0.0,0.0,96,0.00,,,1.75,weatherlink.com 1.10,2013-04-12 03:49:00,
2013-04-11 23:04:00,62.4,61.0,29.57,SSW,194,0.0,0.0,96,0.00,,,1.75,weatherlink.com 1.10,2013-04-12 04:04:00,
2013-04-11 23:19:00,62.5,61.0,29.57,West,263,0.0,3.0,96,0.09,,,1.84,weatherlink.com 1.10,2013-04-12 04:19:00,
2013-04-11 23:35:00,62.7,62.0,29.59,WSW,238,2.0,5.0,96,0.11,,,1.86,weatherlink.com 1.10,2013-04-12 04:35:00,
2013-04-11 23:49:00,61.7,60.0,29.60,West,260,0.0,3.0,95,0.11,,,1.86,weatherlink.com 1.10,2013-04-12 04:49:00,